Regional Weather Roundup
Issued by NWS

Home | Current Version | Previous Version | Text Only | Print | Product List | Glossary Off
Versions: 1 2 3 4 5 6 7 8 9 10 11 12 13 14 15 16 17 18 19 20 21 22 23 24 25 26 27 28 29 30 31 32 33 34 35 36 37 38 39 40 41 42 43 44 45 46 47 48 49 50

000
ASUS43 KLMK 260902
RWRKY
KENTUCKY REGIONAL WEATHER ROUNDUP
NATIONAL WEATHER SERVICE LOUISVILLE KY
400 AM EST MON JAN 26 2015

NOTE "FAIR" INDICATES FEW OR NO CLOUDS BELOW 12,000 FEET
WITH NO SIGNIFICANT WEATHER AND/OR OBSTRUCTIONS TO VISIBILITY.

KYZ001>023-026-027-061>063-070>075-261000-
WESTERN AND SOUTH CENTRAL KENTUCKY

CITY           SKY/WX    TMP DP  RH WIND       PRES   REMARKS
PADUCAH        CLOUDY    34  29  82 N13       29.96R WCI  25
HENDERSON      CLOUDY    30  25  80 NW10G16   29.93R WCI  21
OWENSBORO      CLOUDY    30  26  85 N12G23    29.91R WCI  20
HOPKINSVILLE   CLOUDY    33  30  89 NW15G22   29.89R WCI  23
BOWLING GREEN  CLOUDY    33  30  88 NW18G30   29.83R FOG     WCI  22
GLASGOW        NOT AVBL
$$

KYZ024-025-028>034-038-045-046-053-261000-
NORTH CENTRAL KENTUCKY

CITY           SKY/WX    TMP DP  RH WIND       PRES   REMARKS
LOUISVILLE/SDF CLOUDY    28  23  81 NW13G24   29.83R WCI  17
LOUISVILLE/LOU CLOUDY    27  22  81 NW12G23   29.82R WCI  17
FORT KNOX      CLOUDY    28  25  87 NW13G18   29.80R WCI  17
$$

KYZ035>037-039>044-047>052-055>060-089>105-261000-
NORTHEAST KENTUCKY

CITY           SKY/WX    TMP DP  RH WIND       PRES   REMARKS
LEXINGTON      CLOUDY    29  29 100 NW17G24   29.72R FOG     WCI  17
COVINGTON      CLOUDY    24  20  84 N18       29.77R BLWGSNOWWCI  10
FRANKFORT      CLOUDY    29  26  89 NW10      29.74R WCI  20
$$

KYZ054-064>069-076>088-106>120-261000-
SOUTHEAST KENTUCKY

CITY           SKY/WX    TMP DP  RH WIND       PRES   REMARKS
JACKSON        CLOUDY    41  38  89 SW3       29.62S
LONDON         LGT RAIN  38  34  85 W9        29.66S WCI  31
SOMERSET       NOT AVBL
MIDDLESBORO    NOT AVBL
MONTICELLO     LGT SNOW  38  38 100 W9        29.73S FOG     WCI  31
$$




USA.gov is the U.S. government's official web portal to all federal, state and local government web resources and services.